TimeEDT,TemperatureF,Dew PointF,Humidity,Sea Level PressureIn,VisibilityMPH,Wind Direction,Wind SpeedMPH,Gust SpeedMPH,PrecipitationIn,Events,Conditions,WindDirDegrees,DateUTC
12:19 AM,64.4,-9999,N/A,29.99,1.8,Calm,Calm,-,N/A,,Partly Cloudy,0,2013-08-29 04:19:00
12:30 AM,64.4,-9999,N/A,29.99,3.0,Calm,Calm,-,N/A,,Partly Cloudy,0,2013-08-29 04:30:00
12:49 AM,64.4,-9999,N/A,29.99,6.0,Calm,Calm,-,N/A,,Haze,0,2013-08-29 04:49:00
12:53 AM,64.0,-9999,N/A,29.96,7.0,Calm,Calm,-,N/A,,Mostly Cloudy,0,2013-08-29 04:53:00
1:07 AM,64.4,-9999,N/A,29.99,0.8,South,4.6,-,N/A,,Overcast,180,2013-08-29 05:07:00
1:25 AM,62.6,-9999,N/A,29.98,1.2,Calm,Calm,-,N/A,,Overcast,0,2013-08-29 05:25:00
1:53 AM,64.0,-9999,N/A,29.95,1.2,Calm,Calm,-,N/A,,Overcast,0,2013-08-29 05:53:00
2:00 AM,64.4,-9999,N/A,29.98,3.0,Calm,Calm,-,N/A,,Overcast,0,2013-08-29 06:00:00
2:08 AM,64.4,-9999,N/A,29.98,1.8,Calm,Calm,-,N/A,,Overcast,0,2013-08-29 06:08:00
2:18 AM,64.4,-9999,N/A,29.98,0.5,NE,3.5,-,N/A,Fog,Fog,50,2013-08-29 06:18:00
2:23 AM,64.4,-9999,N/A,29.98,0.2,NE,3.5,-,N/A,Fog,Fog,50,2013-08-29 06:23:00
2:41 AM,64.4,-9999,N/A,29.98,0.8,NE,3.5,-,N/A,,Mist,40,2013-08-29 06:41:00
2:53 AM,64.0,-9999,N/A,29.96,0.8,Calm,Calm,-,N/A,,Mist,0,2013-08-29 06:53:00
3:24 AM,62.6,-9999,N/A,29.99,1.8,Calm,Calm,-,N/A,,Overcast,0,2013-08-29 07:24:00
3:50 AM,62.6,-9999,N/A,29.99,0.5,Calm,Calm,-,N/A,Fog,Fog,0,2013-08-29 07:50:00
3:53 AM,62.1,-9999,N/A,29.97,0.8,Calm,Calm,-,N/A,,Mist,0,2013-08-29 07:53:00
4:09 AM,62.6,-9999,N/A,30.00,0.2,Calm,Calm,-,N/A,Fog,Fog,0,2013-08-29 08:09:00
4:25 AM,62.6,-9999,N/A,30.00,1.0,Calm,Calm,-,N/A,,Mist,0,2013-08-29 08:25:00
4:34 AM,62.6,62.6,100,30.00,3.0,Calm,Calm,-,N/A,,Overcast,0,2013-08-29 08:34:00
4:53 AM,63.0,63.0,100,29.98,10.0,Calm,Calm,-,N/A,,Overcast,0,2013-08-29 08:53:00
5:18 AM,62.6,62.6,100,30.02,10.0,Calm,Calm,-,N/A,,Overcast,0,2013-08-29 09:18:00
5:53 AM,62.1,62.1,100,30.01,9.0,Calm,Calm,-,N/A,,Overcast,0,2013-08-29 09:53:00
6:39 AM,64.4,64.4,100,30.05,5.0,Calm,Calm,-,N/A,,Overcast,0,2013-08-29 10:39:00
6:43 AM,64.4,64.4,100,30.05,1.5,Calm,Calm,-,N/A,,Overcast,0,2013-08-29 10:43:00
6:53 AM,64.0,64.0,100,30.03,0.5,Calm,Calm,-,N/A,Fog,Fog,0,2013-08-29 10:53:00
7:12 AM,64.4,64.4,100,30.06,2.0,NW,3.5,-,N/A,,Overcast,320,2013-08-29 11:12:00
7:27 AM,64.4,64.4,100,30.06,4.0,Calm,Calm,-,N/A,,Overcast,0,2013-08-29 11:27:00
7:53 AM,66.0,64.0,93,30.04,8.0,Calm,Calm,-,N/A,,Overcast,0,2013-08-29 11:53:00
8:40 AM,66.2,64.4,94,30.08,9.0,Calm,Calm,-,N/A,,Overcast,0,2013-08-29 12:40:00
8:49 AM,66.2,64.4,94,30.08,10.0,Calm,Calm,-,N/A,,Overcast,0,2013-08-29 12:49:00
8:53 AM,66.9,64.0,90,30.06,10.0,Calm,Calm,-,N/A,,Overcast,0,2013-08-29 12:53:00
9:09 AM,66.2,64.4,94,30.08,10.0,Calm,Calm,-,N/A,,Overcast,0,2013-08-29 13:09:00
9:36 AM,68.0,64.4,88,30.08,9.0,Calm,Calm,-,N/A,,Overcast,0,2013-08-29 13:36:00
9:53 AM,68.0,64.9,90,30.06,9.0,West,3.5,-,N/A,,Overcast,280,2013-08-29 13:53:00
10:53 AM,71.1,64.0,78,30.06,10.0,Calm,Calm,-,N/A,,Overcast,0,2013-08-29 14:53:00
11:51 AM,71.6,64.4,78,30.07,10.0,Calm,Calm,-,N/A,,Overcast,0,2013-08-29 15:51:00
11:53 AM,72.0,64.0,76,30.04,10.0,Calm,Calm,-,N/A,,Overcast,0,2013-08-29 15:53:00
12:01 PM,71.6,64.4,78,30.06,10.0,Calm,Calm,-,N/A,,Overcast,0,2013-08-29 16:01:00
12:53 PM,70.0,63.0,78,30.04,10.0,SSE,4.6,-,N/A,,Overcast,160,2013-08-29 16:53:00
1:41 PM,71.6,62.6,73,30.06,10.0,West,3.5,-,N/A,,Overcast,260,2013-08-29 17:41:00
1:53 PM,71.1,64.0,78,30.04,10.0,Calm,Calm,-,N/A,,Overcast,0,2013-08-29 17:53:00
2:53 PM,72.0,64.0,76,30.02,10.0,Calm,Calm,-,N/A,,Overcast,0,2013-08-29 18:53:00
3:53 PM,72.0,64.0,76,30.01,10.0,SSE,4.6,-,N/A,,Overcast,160,2013-08-29 19:53:00
4:53 PM,73.0,63.0,71,30.01,10.0,South,5.8,-,N/A,,Partly Cloudy,180,2013-08-29 20:53:00
5:26 PM,73.4,62.6,69,30.03,10.0,Calm,Calm,-,N/A,,Mostly Cloudy,0,2013-08-29 21:26:00
5:48 PM,69.8,62.6,78,30.03,10.0,SE,4.6,-,N/A,,Scattered Clouds,140,2013-08-29 21:48:00
5:53 PM,70.0,62.1,76,30.01,10.0,SE,4.6,-,N/A,,Scattered Clouds,140,2013-08-29 21:53:00
6:53 PM,68.0,62.1,81,30.01,10.0,SE,4.6,-,N/A,,Mostly Cloudy,140,2013-08-29 22:53:00
7:53 PM,66.9,62.1,84,30.02,10.0,Calm,Calm,-,N/A,,Overcast,0,2013-08-29 23:53:00
8:53 PM,66.9,62.1,84,30.04,10.0,Calm,Calm,-,N/A,,Overcast,0,2013-08-30 00:53:00
9:53 PM,66.0,62.1,87,30.02,10.0,Calm,Calm,-,N/A,,Overcast,0,2013-08-30 01:53:00
10:53 PM,64.9,62.1,90,30.01,10.0,Calm,Calm,-,N/A,,Overcast,0,2013-08-30 02:53:00
11:53 PM,64.9,62.1,90,30.01,10.0,Calm,Calm,-,N/A,,Overcast,0,2013-08-30 03:53:00